Location: Jackson Park
(37.2862°N, 79.9123°W)
Time: 14:43:25
(UTC+00:00)

Vanguard 2 - Pass Details

Date: 13 May 2026
Orbit: 553 x 2894 km, 32.9° (Epoch: 6 June)

Event Time Altitude Azimuth Distance (km) Brightness Sun altitude
Rises 07:49:14 0° 240° (WSW) 6,546 - -23.6°
Reaches altitude 10° 07:53:30 10° 238° (WSW) 5,643 - -23.1°
Exits shadow 07:59:50 28° 231° (SW) 4,363 10.7 -22.3°
Maximum altitude 08:10:50 63° 162° (SSE) 2,962 10.2 -20.7°
Drops below altitude 10° 08:24:54 10° 86° (E) 4,693 12.2 -18.7°
Sets 08:28:04 0° 83° (E) 5,432 12.8 -18.3°
